Regional Weather Roundup
Issued by NWS Portland, ME

Current Version | Previous Version | Text Only | Print | Product List | Glossary Off
Versions: 1 2 3 4 5 6 7 8 9 10 11 12 13 14 15 16 17 18 19 20 21 22 23 24 25 26 27 28 29 30 31 32 33 34 35 36 37 38 39 40 41 42 43 44 45 46 47 48 49 50
000 ASUS41 KGYX 251410 RWRGYX WEATHER ROUNDUP FOR MAINE AND NEW HAMPSHIRE NATIONAL WEATHER SERVICE GRAY ME 1000 AM EDT MON SEP 25 2017 MEZ002-005-006-010-012-015-018-020-021-024-026-027-029-251500- MAINE CITY SKY/WX TMP DP RH WIND PRES REMARKS PORTLAND MOSUNNY 80 68 66 CALM 30.10S SANFORD SUNNY 81 70 69 E8 30.11R BAR HARBOR SUNNY 69 63 81 SE7 30.11S WISCASSET SUNNY 80 69 69 VRB3 30.11R ROCKLAND SUNNY 75 68 78 NE5 30.10S FRYEBURG SUNNY 78 71 79 CALM 30.12S LEWISTONAUBURN SUNNY 78 70 76 CALM 30.12R AUGUSTA SUNNY 76 67 73 N3 30.12R WATERVILLE SUNNY 76 68 76 CALM 30.09S BANGOR MOSUNNY 77 67 71 E3 30.11R GREENVILLE N/A 74 69 85 CALM 30.12F MILLINOCKET SUNNY 73 65 75 VRB3 30.11F HOULTON SUNNY 70 62 76 S6 30.09S PRESQUE ISLE PTSUNNY 71 63 75 VRB7 30.09S FRENCHVILLE MOSUNNY 64 57 78 VRB5 30.07F CARIBOU MOSUNNY 70 61 73 S7 30.07F $$ NHZ002-005-008-009-011-012-014-251500- NEW HAMPSHIRE CITY SKY/WX TMP DP RH WIND PRES REMARKS PORTSMOUTH MOSUNNY 79 69 72 NE5 30.09R ROCHESTER SUNNY 81 69 67 N3 30.10R NASHUA SUNNY 80 71 74 CALM 30.10S MANCHESTER SUNNY 82 69 64 N3 30.08S CONCORD SUNNY 78 69 73 W3 30.11R LACONIA SUNNY 76 68 76 E3 30.12S PLYMOUTH FAIR 70 68 96 CALM 30.12S BERLIN SUNNY 72 63 73 CALM 30.16S WHITEFIELD SUNNY 74 67 78 CALM 30.15F HAZE JAFFREY SUNNY 80 70 71 CALM 30.14S KEENE SUNNY 77 69 76 CALM 30.12S LEBANON FOG 67 67 100 CALM 30.13S VSB 1 MT WASHINGTON PTSUNNY 57 55 94 N5 N/A $$ VTZ005-007-008-251500- VERMONT CITY SKY/WX TMP DP RH WIND PRES REMARKS ST JOHNSBURY N/A 66 66 100 MISG 30.13S MONTPELIER FOG 65 65 100 CALM 30.19R VSB 1/4 BURLINGTON MOSUNNY 78 70 76 NE3 30.11S $$ MAZ007-012-024-CTZ003-RIZ002-NYZ038-NYZ072-251500- SOUTHERN NEW ENGLAND AND NY CITY SKY/WX TMP DP RH WIND PRES REMARKS BOSTON SUNNY 72 66 81 CALM 30.09R WORCESTER SUNNY 77 66 68 E6 30.13R NANTUCKET CLOUDY 69 69 100 E8 30.09R PROVIDENCE SUNNY 77 65 66 SE3 30.09S HARTFORD SUNNY 80 69 69 N6 30.09R ALBANY SUNNY 76 68 76 N8 30.11S NEW YORK CITY SUNNY 77 66 68 NE8 30.07S $$ ANZ081-ANZ082-ANZ150-NHZ014-MEZ023>029-251500- COASTAL MARINE OBSERVATIONS STATION/POSITION TIME TEMP WIND PRES WAVE AIR SEA DIR/SP/G HT/PER (UTC) (F) (DEG/KT/KT) (MB) (FT/S) MOUNT DESERT ROC 1400 58 30/ 10/ 11 1019.8R MATINICUS ROCK 1300 61 270/ 5/ 6 1018.7R ISLE OF SHOALS 1300 68 10/ 7/ 7 1018.3R JEFFREYS LEDGE 1306 63 N/A 4/13 GEORGES BANK BUO 1250 73 69 1017.7 7/12 $$ .............KEY.............. WCI - WIND CHILL TC - TEMPERATURE IN CELSIUS VSB - VISIBILITY IN MILES HX - HEAT INDEX FAIR- INDICATES FEW OR NO CLOUDS BELOW 12,000 FT, WITH NO SIGNIFICANT WEATHER AND/OR OBSTRUCTIONS TO VISIBILITY.

USA.gov is the U.S. government's official web portal to all federal, state and local government web resources and services.